Regional Weather Roundup
Issued by NWS Jackson, KY

Home | Current Version | Previous Version | Text Only | Print | Product List | Glossary On
Versions: 1 2 3 4 5 6 7 8 9 10 11 12 13 14 15 16 17 18 19 20 21 22 23 24 25 26 27 28
000
ASUS43 KJKL 180110
RWRJKL

EAST KENTUCKY HOURLY WEATHER ROUNDUP
NATIONAL WEATHER SERVICE JACKSON KY
900 PM EDT TUE OCT 17 2017

NOTE: "FAIR" INDICATES FEW OR NO CLOUDS BELOW 12,000 FEET WITH
NO SIGNIFICANT WEATHER AND/OR OBSTRUCTIONS TO VISIBILITY.

* THESE REPORTS ARE NOT UNDER NWS QUALITY CONTROL AND MAY NOT
  REPORT WEATHER SUCH AS PRECIPITATION AND FOG.

KYZ079-080-083-085-087-088-110-112-115-119-120-180200
...EASTERN KENTUCKY...

CITY           SKY/WX    TMP DP  RH WIND       PRES   REMARKS
JACKSON        CLEAR     55  38  52 CALM      30.30R
LONDON         CLEAR     50  44  80 CALM      30.29R
SOMERSET*      PTCLDY    46  43  87 CALM      30.30S
MONTICELLO*    CLEAR     43  41  93 CALM      30.31
WILLIAMSBURG*  CLEAR     48  46  93 CALM      30.29S
MIDDLESBORO*   CLEAR     49  44  83 CALM      30.31R
HARLAN APT*    CLEAR     48  43  81 CALM      30.31R
PIKE CO APT*     N/A     55  38  51 NE5       30.30S
BIG SANDY APT* CLEAR     51  43  74 CALM      30.31R
MOREHEAD APT*  CLEAR     52  39  62 CALM      30.31S
$$

KYZ035-036-041-042-044-050-067-078-099-180200
...CENTRAL KENTUCKY...

CITY           SKY/WX    TMP DP  RH WIND       PRES   REMARKS
MT STERLING*   CLOUDY    46  43  87 CALM      30.31S
FLEMING/MASON* CLEAR     53  40  61 SW5       30.31S
DANVILLE*      CLEAR     46  45  93 CALM      30.30S
LEXINGTON      PTCLDY    52  43  71 CALM      30.29S
FRANKFORT      CLOUDY    50  42  74 CALM      30.27S
LOUISVILLE     PTCLDY    57  44  62 SE5       30.27R
LEBANON*         N/A     54  41  62 CALM      30.29S
GLASGOW*       PTCLDY    48  44  85 CALM      30.28R
BOWLING GREEN  PTCLDY    54  46  74 CALM      30.27S
$$

KYZ091>093-OHZ055-061-077-WVZ005-015-034-035-042-180200
...SOUTHERN OHIO/WEST VIRGINIA...

CITY           SKY/WX    TMP DP  RH WIND       PRES   REMARKS
COVINGTON      PTCLDY    52  44  74 S6        30.27S
COLUMBUS       CLEAR     57  41  55 S5        30.26R
DAYTON         CLEAR     56  40  55 S8        30.27R
WILMINGTON     CLEAR     49  42  77 CALM      30.27S
HUNTINGTON     CLEAR     52  41  66 CALM      30.29S
CHARLESTON     CLEAR     49  40  71 CALM      30.30R
PINEVILLE*     CLEAR     45  41  86 MISG      30.36S
BECKLEY        CLEAR     46  35  65 CALM      30.32R
BLUEFIELD      CLEAR     50  33  52 CALM      30.33R
LOGAN CO APT*    N/A     54  39  58 CALM      30.30S
$$

VAZ002-007-008-TNZ017-027-036-066-071-180200
...SOUTHWEST VIRGINIA/EAST TENNESSEE...

CITY           SKY/WX    TMP DP  RH WIND       PRES   REMARKS
WISE*          CLEAR     50  36  57 CALM      30.33S
JONESVILLE*      N/A     46  43  87 CALM      30.32S
ABINGDON*      CLEAR     50  41  70 CALM      30.31S
BRISTOL        PTCLDY    49  43  80 CALM      30.30R
MORRISTOWN*    CLEAR     52  41  66 CALM      30.29R
SEVIERVILLE*   CLEAR     50  45  81 CALM      30.28S
KNOXVILLE      PTCLDY    55  46  71 CALM      30.27R
LAFOLLETTE*    CLEAR     48  46  93 CALM      30.33R
OAK RIDGE      CLEAR     51  48  89 CALM      30.30R
CROSSVILLE     CLEAR     49  42  77 CALM      30.30R
NASHVILLE      MOCLDY    60  43  53 CALM      30.27S
$$

...KEY TO REMARKS...
VSB - VISIBILITY IN MILES
WCI - WIND CHILL INDEX
HX  - HEAT INDEX

$$




USA.gov is the U.S. government's official web portal to all federal, state and local government web resources and services.